| time (UTC) | temp F | wind direction | speed MPH | gust MPH | rain 1hr in | rain 24hr in | rain mn in | humidity % | barometer mb |
| 20260504031817 | 39 | 290 | 10.0 | 0.0 | 0.00 | 0.00 | 0.00 | 81 | 1015.0 |
| 20260504030434 | 39 | 290 | 10.0 | 0.0 | 0.00 | 0.00 | 0.00 | 81 | 1015.0 |
| 20260504024818 | 39 | 290 | 10.0 | 0.0 | 0.00 | 0.00 | 0.00 | 81 | 1015.0 |
| 20260504023317 | 39 | 290 | 10.0 | 0.0 | 0.00 | 0.00 | 0.00 | 81 | 1015.0 |
| 20260504021816 | 41 | 290 | 10.0 | 0.0 | 0.00 | 0.00 | 0.00 | 76 | 1015.0 |
| 20260504020317 | 41 | 290 | 10.0 | 0.0 | 0.00 | 0.00 | 0.00 | 76 | 1015.0 |
| 20260504014817 | 41 | 290 | 9.0 | 0.0 | 0.00 | 0.00 | 0.00 | 70 | 1015.0 |
| 20260504013322 | 41 | 290 | 9.0 | 0.0 | 0.00 | 0.00 | 0.00 | 70 | 1015.0 |
| 20260504011933 | 41 | 290 | 8.0 | 0.0 | 0.00 | 0.00 | 0.00 | 70 | 1016.0 |
| 20260504010317 | 41 | 290 | 8.0 | 0.0 | 0.00 | 0.00 | 0.00 | 70 | 1016.0 |
| 20260504004934 | 41 | 290 | 9.0 | 0.0 | 0.00 | 0.00 | 0.00 | 70 | 1016.0 |
| 20260504003317 | 41 | 290 | 9.0 | 0.0 | 0.00 | 0.00 | 0.00 | 70 | 1016.0 |
| 20260504001817 | 41 | 290 | 10.0 | 0.0 | 0.00 | 0.00 | 0.00 | 76 | 1016.0 |
| 20260504000317 | 41 | 290 | 10.0 | 0.0 | 0.00 | 0.00 | 0.00 | 76 | 1016.0 |
| 20260503234857 | 41 | 290 | 10.0 | 0.0 | 0.00 | 0.00 | 0.00 | 76 | 1016.0 |
| 20260503233317 | 41 | 290 | 10.0 | 0.0 | 0.00 | 0.00 | 0.00 | 76 | 1016.0 |
| 20260503231820 | 41 | 290 | 11.0 | 0.0 | 0.00 | 0.00 | 0.00 | 76 | 1017.0 |
| 20260503230329 | 41 | 290 | 11.0 | 0.0 | 0.00 | 0.00 | 0.00 | 76 | 1017.0 |
| 20260503224817 | 41 | 290 | 10.0 | 0.0 | 0.00 | 0.00 | 0.00 | 76 | 1017.0 |
| 20260503223329 | 41 | 290 | 10.0 | 0.0 | 0.00 | 0.00 | 0.00 | 76 | 1017.0 |
| 20260503221834 | 41 | 290 | 8.0 | 0.0 | 0.00 | 0.00 | 0.00 | 76 | 1017.0 |
| 20260503220359 | 41 | 290 | 8.0 | 0.0 | 0.00 | 0.00 | 0.00 | 76 | 1017.0 |
| 20260503214824 | 41 | 290 | 10.0 | 0.0 | 0.00 | 0.00 | 0.00 | 76 | 1017.0 |
| 20260503213317 | 41 | 290 | 10.0 | 0.0 | 0.00 | 0.00 | 0.00 | 76 | 1017.0 |
| 20260503211817 | 39 | 290 | 9.0 | 0.0 | 0.00 | 0.00 | 0.00 | 81 | 1017.0 |
| 20260503210317 | 39 | 290 | 9.0 | 0.0 | 0.00 | 0.00 | 0.00 | 81 | 1017.0 |
| 20260503204824 | 39 | 300 | 7.0 | 0.0 | 0.00 | 0.00 | 0.00 | 81 | 1017.0 |
| 20260503203433 | 39 | 300 | 7.0 | 0.0 | 0.00 | 0.00 | 0.00 | 81 | 1017.0 |
| 20260503201817 | 41 | 310 | 7.0 | 0.0 | 0.00 | 0.00 | 0.00 | 76 | 1018.0 |
| 20260503200326 | 41 | 310 | 7.0 | 0.0 | 0.00 | 0.00 | 0.00 | 76 | 1018.0 |
| 20260503194842 | 41 | 310 | 5.0 | 0.0 | 0.00 | 0.00 | 0.00 | 76 | 1018.0 |
| 20260503193434 | 41 | 310 | 5.0 | 0.0 | 0.00 | 0.00 | 0.00 | 76 | 1018.0 |
| 20260503191817 | 43 | 300 | 5.0 | 0.0 | 0.00 | 0.00 | 0.00 | 76 | 1018.0 |
| 20260503190317 | 43 | 300 | 5.0 | 0.0 | 0.00 | 0.00 | 0.00 | 76 | 1018.0 |
| 20260503184933 | 41 | 310 | 5.0 | 0.0 | 0.00 | 0.00 | 0.00 | 76 | 1019.0 |
| 20260503183316 | 41 | 310 | 5.0 | 0.0 | 0.00 | 0.00 | 0.00 | 76 | 1019.0 |
| 20260503181817 | 46 | 0 | 0.0 | 0.0 | 0.00 | 0.00 | 0.00 | 62 | 1019.0 |
| 20260503180316 | 46 | 0 | 0.0 | 0.0 | 0.00 | 0.00 | 0.00 | 62 | 1019.0 |
| 20260503174837 | 46 | 0 | 0.0 | 0.0 | 0.00 | 0.00 | 0.00 | 66 | 1018.0 |
| 20260503173342 | 46 | 0 | 0.0 | 0.0 | 0.00 | 0.00 | 0.00 | 66 | 1018.0 |
| 20260503171817 | 48 | 70 | 6.0 | 0.0 | 0.00 | 0.00 | 0.00 | 66 | 1018.0 |
| 20260503170317 | 48 | 70 | 6.0 | 0.0 | 0.00 | 0.00 | 0.00 | 66 | 1018.0 |
| 20260503150317 | 54 | 90 | 11.0 | 0.0 | 0.00 | 0.00 | 0.00 | 51 | 1019.0 |
| 20260503130317 | 57 | 30 | 10.0 | 0.0 | 0.00 | 0.00 | 0.00 | 51 | 1019.0 |
| 20260503110338 | 57 | 60 | 11.0 | 0.0 | 0.00 | 0.00 | 0.00 | 51 | 1021.0 |
| 20260503090338 | 55 | 50 | 15.0 | 0.0 | 0.00 | 0.00 | 0.00 | 51 | 1021.0 |
| 20260503080327 | 55 | 40 | 15.0 | 0.0 | 0.00 | 0.00 | 0.00 | 51 | 1021.0 |
| 20260503071816 | 54 | 40 | 14.0 | 0.0 | 0.00 | 0.00 | 0.00 | 63 | 1021.0 |
| 20260503070318 | 54 | 40 | 14.0 | 0.0 | 0.00 | 0.00 | 0.00 | 63 | 1021.0 |
| 20260503060317 | 50 | 20 | 13.0 | 0.0 | 0.00 | 0.00 | 0.00 | 76 | 1021.0 |
| 20260503054817 | 48 | 10 | 11.0 | 0.0 | 0.00 | 0.00 | 0.00 | 71 | 1021.0 |
| 20260503053317 | 48 | 10 | 11.0 | 0.0 | 0.00 | 0.00 | 0.00 | 71 | 1021.0 |
| 20260503051817 | 46 | 360 | 13.0 | 0.0 | 0.00 | 0.00 | 0.00 | 71 | 1021.0 |
| 20260503050317 | 46 | 360 | 13.0 | 0.0 | 0.00 | 0.00 | 0.00 | 71 | 1021.0 |
| 20260503044817 | 43 | 360 | 11.0 | 0.0 | 0.00 | 0.00 | 0.00 | 76 | 1021.0 |
| 20260503043318 | 43 | 360 | 11.0 | 0.0 | 0.00 | 0.00 | 0.00 | 76 | 1021.0 |
| 20260503041817 | 41 | 360 | 11.0 | 0.0 | 0.00 | 0.00 | 0.00 | 76 | 1021.0 |
| 20260503040340 | 41 | 360 | 11.0 | 0.0 | 0.00 | 0.00 | 0.00 | 76 | 1021.0 |
| 20260503034819 | 39 | 360 | 11.0 | 0.0 | 0.00 | 0.00 | 0.00 | 75 | 1020.0 |
| 20260503033317 | 39 | 360 | 11.0 | 0.0 | 0.00 | 0.00 | 0.00 | 75 | 1020.0 |